Probability
81 81 81 94 48 58 81 74 61 61 55 52 26 10 10 29 29 19 42 58 65 74 77 74 77 77 65 68 65 68 71 68 61 55 58 45 42 29 29 29 32 32 32
94 94 94 100 87 84 81 71 61 84 77 55 42 39 35 23 19 19 32 61 35 42 61 65 65 71 61 61 58 58 55 55 55 55 45 35 26 19 19 19 23 29 26
94 97 94 94 90 90 90 94 77 71 71 48 45 45 32 39 39 42 39 45 32 32 48 48 45 42 42 45 42 32 35 39 35 35 23 23 10 10 6 10 10 10 10
94 97 94 90 94 97 94 94 84 71 68 52 55 42 42 52 29 32 29 35 42 39 35 23 29 26 29 26 23 26 16 13 13 6 13 3 3 0 0 0 0 0 0
84 87 94 94 94 90 87 74 74 74 61 65 35 42 32 29 32 32 29 26 35 35 23 16 13 13 13 13 13 10 10 10 6 3 0 0 0 0 0 0 0 0 0
81 84 94 81 84 77 77 77 81 65 58 48 13 13 19 16 13 13 10 6 6 3 3 10 16 13 6 3 3 0 0 0 3 0 0 0 0 0 0 0 0 0 0
65 65 65 65 58 61 58 55 45 29 26 32 29 16 6 6 3 6 3 3 3 0 0 0 3 3 0 0 0 0 0 0 0 0 0 0 0 0 0 0 0 0 0
45 39 45 35 39 42 35 32 35 23 16 16 16 13 6 3 3 0 0 0 0 0 0 0 0 0 3 0 0 0 0 0 0 0 0 0 0 0 0 0 0 0 0
10 16 19 16 19 26 23 16 16 23 19 3 6 6 3 3 3 0 0 0 0 0 0 0 0 0 0 0 0 0 0 0 0 0 0 0 0 0 0 0 0 0 0
0 0 0 3 3 3 3 3 6 6 3 3 0 0 0 0 0 0 0 0 0 0 0 0 0 0 0 0 0 0 0 0 0 0 0 0 0 0 0 0 0 0 0
0 0 0 0 0 0 0 0 0 3 3 0 0 0 0 0 0 0 0 0 0 0 0 0 0 0 0 0 0 0 0 0 0 0 0 0 0 0 0 0 0 0 0
0 0 0 0 0 0 0 0 0 0 0 0 0 0 0 0 0 0 0 0 0 0 0 0 0 0 0 0 0 0 0 0 0 0 0 0 0 0 0 0 0 0 0
0 0 0 0 0 0 0 0 0 0 0 0 0 0 0 0 0 0 0 0 0 0 0 0 0 0 0 0 0 0 0 0 0 0 0 0 0 0 0 0 0 0 0
0 0 0 0 0 0 0 0 0 0 0 0 0 0 0 0 0 0 0 0 0 0 0 0 0 0 0 0 0 0 0 0 0 0 0 0 0 0 0 0 0 0 0
0 0 0 0 0 0 0 0 0 0 0 0 0 0 0 0 0 0 0 0 0 0 0 0 0 0 0 0 0 0 0 0 0 0 0 0 0 0 0 0 0 0 0
0 0 0 0 0 0 0 0 0 0 0 0 0 0 0 0 0 0 0 0 0 0 0 0 0 0 0 0 0 0 0 0 0 0 0 0 0 0 0 0 0 0 0
0 0 0 0 0 0 0 0 0 0 0 0 0 0 0 0 0 0 0 0 0 0 0 0 0 0 0 0 0 0 0 0 0 0 0 0 0 0 0 0 0 0 0
0 0 0 0 0 0 0 0 0 0 0 0 0 0 0 0 0 0 0 0 0 0 0 0 0 0 0 0 0 0 0 0 0 0 0 0 0 0 0 0 0 0 0
0 0 0 0 0 0 0 0 0 0 0 0 0 0 0 0 0 0 0 0 0 0 0 0 0 0 0 0 0 0 0 0 0 0 0 0 0 0 0 0 0 0 0
0 0 0 0 0 0 0 0 0 0 0 0 0 0 0 0 0 0 0 0 0 0 0 0 0 0 0 0 0 0 0 0 0 0 0 0 0 0 0 0 0 0 0
0 0 0 0 0 0 0 0 0 0 0 0 0 0 0 0 0 0 0 0 0 0 0 0 0 0 0 0 0 0 0 0 0 0 0 0 0 0 0 0 0 0 0
0 0 0 0 0 0 0 0 0 0 0 0 0 0 0 0 0 0 0 0 0 0 0 0 0 0 0 0 0 0 0 0 0 0 0 0 0 0 0 0 0 0 0
0 0 0 0 0 0 0 0 0 0 0 0 0 0 0 0 0 0 0 0 0 0 0 0 0 0 0 0 0 0 0 0 0 0 0 0 0 0 0 0 0 0 0
0 0 0 0 0 0 0 0 0 0 0 0 0 0 0 0 0 0 0 0 0 0 0 0 0 0 0 0 0 0 0 0 0 0 0 0 0 0 0 0 0 0 0
0 0 0 0 0 0 0 0 0 0 0 0 0 0 0 0 0 0 0 0 0 0 0 0 0 0 0 0 0 0 0 0 0 0 0 0 0 0 0 0 0 0 0
0 0 0 0 0 0 0 0 0 0 0 0 0 0 0 0 0 0 0 0 0 0 0 0 0 0 0 0 0 0 0 0 0 0 0 0 0 0 0 0 0 0 0
Height
5871 5872 5873 5875 5876 5877 5879 5880 5881 5882 5883 5883 5883 5883 5884 5884 5884 5884 5884 5883 5883 5882 5882 5881 5880 5879 5879 5878 5878 5877 5876 5875 5875 5874 5874 5873 5872 5872 5871 5871 5870 5870 5869
5867 5868 5870 5871 5872 5873 5875 5876 5877 5878 5879 5879 5879 5879 5880 5880 5880 5880 5880 5879 5879 5878 5878 5877 5876 5875 5875 5874 5873 5872 5871 5870 5869 5869 5868 5867 5867 5866 5865 5865 5864 5863 5862
5863 5864 5865 5867 5868 5869 5870 5871 5872 5873 5875 5875 5876 5875 5876 5876 5876 5876 5875 5875 5874 5874 5873 5873 5872 5871 5870 5869 5868 5867 5866 5865 5864 5863 5862 5861 5860 5859 5858 5858 5857 5856 5855
5857 5858 5860 5862 5863 5864 5866 5867 5868 5869 5870 5871 5871 5871 5871 5871 5871 5871 5871 5870 5869 5869 5868 5868 5867 5866 5865 5863 5862 5861 5860 5859 5858 5857 5855 5854 5853 5852 5850 5850 5849 5848 5847
5853 5853 5855 5856 5858 5859 5861 5862 5863 5864 5865 5865 5866 5866 5867 5866 5866 5866 5865 5865 5864 5863 5863 5862 5861 5860 5859 5857 5856 5855 5854 5852 5851 5849 5848 5847 5845 5843 5842 5841 5840 5839 5838
5847 5848 5849 5851 5852 5854 5855 5856 5857 5858 5859 5860 5860 5861 5861 5861 5860 5860 5860 5859 5858 5858 5857 5856 5855 5853 5852 5851 5849 5848 5847 5845 5844 5842 5840 5839 5837 5835 5834 5832 5830 5829 5827
5840 5842 5844 5845 5846 5847 5849 5850 5851 5852 5853 5854 5854 5855 5854 5854 5854 5854 5853 5853 5852 5851 5850 5849 5847 5846 5844 5843 5841 5840 5838 5837 5835 5833 5831 5830 5828 5826 5824 5822 5820 5818 5816
5834 5835 5837 5838 5839 5841 5842 5843 5844 5846 5846 5847 5848 5848 5848 5848 5847 5847 5846 5846 5845 5844 5842 5841 5839 5838 5836 5834 5833 5831 5829 5827 5825 5823 5821 5819 5817 5815 5813 5811 5808 5806 5804
5826 5828 5830 5831 5833 5834 5835 5836 5838 5839 5840 5841 5840 5841 5841 5840 5840 5840 5839 5838 5837 5836 5834 5833 5831 5829 5827 5825 5823 5821 5819 5817 5815 5812 5810 5808 5806 5803 5801 5798 5796 5794 5791
5820 5821 5823 5824 5826 5827 5828 5830 5831 5832 5833 5834 5834 5833 5833 5833 5833 5832 5832 5830 5829 5828 5826 5824 5822 5820 5818 5816 5813 5811 5809 5806 5803 5801 5798 5796 5793 5790 5788 5785 5782 5780 5777
5812 5814 5815 5817 5818 5820 5821 5823 5824 5825 5826 5826 5826 5826 5826 5825 5825 5824 5823 5822 5821 5819 5817 5815 5813 5811 5808 5805 5803 5800 5797 5794 5792 5789 5786 5782 5780 5777 5774 5771 5768 5765 5762
5805 5806 5808 5810 5811 5812 5814 5816 5817 5818 5818 5818 5819 5819 5818 5817 5816 5815 5814 5813 5811 5810 5807 5805 5803 5800 5797 5794 5791 5788 5785 5782 5779 5776 5773 5769 5766 5763 5760 5756 5753 5750 5747
5799 5800 5801 5802 5804 5805 5807 5808 5809 5810 5810 5811 5811 5810 5810 5809 5808 5807 5805 5803 5801 5799 5797 5795 5792 5789 5786 5783 5780 5776 5773 5769 5766 5762 5759 5755 5752 5749 5745 5741 5738 5735 5732
5793 5794 5795 5796 5797 5798 5800 5801 5801 5802 5803 5803 5803 5802 5801 5800 5799 5798 5796 5794 5791 5789 5786 5784 5781 5777 5774 5771 5767 5763 5760 5756 5753 5749 5745 5741 5738 5734 5731 5727 5723 5719 5716
5788 5789 5790 5791 5791 5792 5793 5794 5795 5795 5795 5795 5794 5794 5793 5791 5790 5788 5786 5784 5781 5778 5775 5772 5769 5766 5762 5758 5754 5750 5747 5743 5739 5735 5731 5727 5723 5719 5715 5712 5708 5704 5700
5783 5783 5784 5785 5785 5786 5786 5787 5787 5787 5787 5787 5786 5785 5784 5782 5781 5778 5776 5773 5770 5767 5764 5761 5757 5753 5749 5746 5742 5737 5733 5729 5725 5721 5717 5713 5709 5705 5701 5697 5693 5689 5685
5777 5778 5779 5779 5779 5780 5780 5780 5780 5780 5779 5778 5777 5776 5775 5773 5770 5768 5766 5763 5759 5756 5752 5749 5745 5741 5737 5733 5729 5725 5721 5717 5713 5709 5705 5701 5696 5692 5688 5683 5679 5675 5671
5772 5772 5773 5773 5773 5773 5773 5773 5772 5772 5771 5769 5768 5766 5764 5762 5760 5757 5755 5752 5748 5744 5741 5737 5734 5730 5726 5722 5718 5714 5709 5705 5701 5697 5693 5689 5684 5680 5675 5671 5667 5663 5659
5765 5766 5766 5766 5766 5766 5765 5765 5764 5763 5762 5760 5758 5756 5754 5752 5750 5747 5744 5741 5737 5734 5730 5726 5722 5719 5715 5711 5707 5703 5699 5695 5691 5687 5683 5678 5674 5669 5665 5661 5657 5653 5650
5759 5759 5759 5758 5758 5758 5757 5756 5755 5754 5752 5751 5749 5747 5744 5742 5739 5736 5733 5730 5727 5723 5720 5716 5712 5708 5705 5701 5698 5694 5690 5686 5681 5677 5673 5669 5665 5661 5657 5653 5650 5646 5642
5751 5751 5751 5751 5750 5750 5748 5747 5746 5744 5743 5741 5739 5737 5734 5732 5729 5726 5723 5720 5716 5713 5710 5706 5703 5699 5696 5693 5689 5685 5681 5677 5674 5670 5666 5662 5658 5654 5651 5647 5643 5639 5636
5744 5744 5743 5743 5742 5741 5740 5739 5737 5736 5734 5732 5730 5727 5725 5722 5719 5716 5713 5710 5708 5705 5701 5698 5695 5692 5688 5685 5681 5678 5674 5671 5668 5664 5660 5656 5653 5649 5645 5641 5638 5634 5630
5737 5736 5736 5735 5734 5733 5732 5730 5729 5727 5725 5723 5721 5718 5716 5713 5711 5708 5705 5702 5700 5697 5694 5691 5688 5685 5682 5678 5675 5672 5669 5666 5662 5659 5655 5652 5648 5645 5641 5637 5633 5629 5625
5730 5729 5729 5728 5727 5725 5724 5722 5721 5719 5717 5715 5713 5711 5708 5706 5703 5701 5698 5696 5693 5691 5688 5685 5682 5679 5676 5673 5670 5667 5664 5661 5658 5655 5651 5648 5645 5641 5637 5633 5630 5626 5621
5723 5723 5722 5720 5719 5718 5716 5715 5713 5712 5710 5708 5706 5704 5702 5700 5698 5695 5693 5690 5687 5685 5682 5679 5676 5673 5670 5668 5665 5662 5660 5657 5654 5651 5648 5645 5641 5638 5634 5630 5626 5622 5618
5717 5716 5715 5714 5712 5711 5709 5708 5707 5705 5704 5702 5700 5698 5696 5695 5692 5690 5688 5685 5682 5680 5677 5674 5671 5668 5666 5663 5661 5658 5656 5653 5650 5648 5645 5642 5639 5635 5632 5628 5624 5619 5615
Wind_Speed
21 21 21 20 20 19 19 19 19 19 18 18 18 18 18 18 18 17 17 17 17 17 17 18 18 18 18 19 20 20 21 22 23 23 23 24 24 24 25 25 25 26 26
22 22 22 22 22 21 21 21 21 21 21 21 21 21 21 21 20 20 20 19 19 19 20 19 20 20 21 22 22 23 24 24 25 25 26 27 27 27 28 28 29 30 30
24 24 24 24 24 23 23 23 23 22 22 23 23 23 23 22 22 23 23 22 22 22 22 22 22 22 23 23 24 25 26 27 27 28 28 29 30 31 31 32 32 32 33
25 25 26 26 25 25 25 25 25 24 24 24 24 24 25 25 24 25 25 24 24 24 23 24 24 25 26 26 27 28 28 28 29 30 31 32 32 33 34 34 35 35 36
27 27 28 28 27 27 27 27 26 26 26 26 26 27 27 27 27 27 26 26 26 26 26 26 27 28 29 29 29 30 31 32 33 34 34 35 36 37 37 38 39 39 41
27 28 28 28 29 29 28 29 28 28 28 28 28 28 29 29 30 29 29 28 28 29 29 29 30 31 31 32 32 32 33 34 35 36 37 38 40 40 41 42 43 44 45
28 29 29 29 30 31 31 30 31 30 30 30 30 30 30 31 32 31 31 32 32 32 32 33 33 34 34 35 35 36 36 38 39 40 40 41 43 44 45 47 48 48 48
31 30 30 30 30 32 32 32 32 31 30 30 31 32 32 32 33 33 34 35 35 35 36 36 37 37 37 38 38 39 40 41 42 43 45 45 46 47 49 50 51 51 51
31 32 32 32 32 32 33 33 32 32 32 31 31 32 32 33 35 34 35 36 37 37 38 39 38 39 40 41 41 42 43 44 46 46 47 48 49 50 51 52 53 54 55
29 31 32 33 33 33 32 32 32 32 32 33 32 32 32 33 34 35 36 37 37 38 39 40 41 42 42 43 44 45 46 47 48 49 50 51 52 52 53 54 55 56 56
29 31 31 32 32 33 33 33 33 32 33 33 33 33 33 34 36 37 37 37 39 40 41 41 43 44 45 46 47 48 49 49 50 51 52 53 54 54 55 56 56 57 57
26 28 30 31 32 33 34 34 32 32 33 33 33 34 34 34 35 36 38 39 40 41 42 43 45 46 48 48 49 50 51 52 52 53 54 54 55 55 56 57 57 58 58
24 26 28 30 30 31 32 32 32 32 31 32 32 33 33 34 35 36 38 39 41 42 44 45 47 48 49 50 51 52 53 53 54 54 55 55 56 56 57 58 57 58 58
22 24 26 27 29 30 30 30 30 30 31 32 34 34 34 35 36 38 39 41 43 45 46 47 48 50 51 52 53 53 54 54 55 55 56 56 56 56 56 57 58 57 57
22 23 25 25 26 27 28 28 29 30 32 33 34 34 35 36 38 40 41 43 45 47 48 49 50 52 53 53 54 54 54 55 55 55 55 54 54 54 54 55 56 56 56
20 21 24 24 24 26 26 26 27 29 31 33 34 34 36 38 40 42 43 44 46 48 49 50 51 52 53 53 53 54 54 54 53 53 52 52 52 52 52 52 52 53 53
19 20 22 22 23 24 26 27 29 30 32 33 34 36 39 41 42 43 44 46 47 48 49 50 51 51 51 51 51 52 51 50 50 49 49 49 49 49 49 49 48 48 48
21 21 22 23 25 26 28 30 31 32 34 36 37 39 41 42 43 44 45 46 46 47 48 48 49 49 49 48 49 48 48 47 47 46 46 46 45 45 44 43 42 42 42
23 24 25 26 27 29 30 32 33 35 36 38 39 40 41 42 43 44 44 45 45 46 46 46 46 46 45 45 44 44 44 43 42 41 40 40 39 38 37 36 36 36 36
25 26 27 28 30 31 33 34 35 36 37 38 39 40 40 41 42 42 43 43 43 43 43 42 41 41 40 40 39 38 37 36 36 35 34 33 33 32 31 31 30 29 30
27 28 29 30 30 32 33 34 34 35 36 37 37 38 39 40 40 40 40 40 39 38 37 37 36 35 35 34 34 33 33 32 32 31 30 29 28 28 27 27 27 26 27
27 28 29 29 30 31 32 33 33 34 35 35 36 36 36 37 37 36 36 34 33 33 32 31 31 31 31 30 30 29 28 28 27 26 26 26 26 25 25 25 25 25 26
27 28 28 29 30 30 31 32 32 33 33 33 33 33 32 32 31 31 30 29 28 28 27 27 27 27 27 27 26 25 25 24 24 23 23 22 22 21 22 22 23 24 24
26 27 27 28 28 28 29 29 30 30 30 30 29 28 27 26 25 25 24 25 24 24 25 25 25 24 24 23 23 22 22 22 21 20 20 19 19 20 21 21 21 22 22
25 25 25 26 26 26 27 27 27 26 26 25 24 23 23 23 22 22 22 22 22 22 22 23 23 22 22 22 21 20 20 19 19 18 18 18 18 19 19 19 20 21 21
23 23 24 24 24 24 24 24 23 23 22 22 22 22 22 21 20 20 20 20 21 21 21 21 21 20 19 19 18 18 17 17 17 16 16 17 17 18 18 19 20 20 20
Wind_Direction
236 236 238 239 239 239 239 238 238 240 243 245 248 251 254 258 261 265 269 274 277 279 280 281 280 281 282 281 280 280 279 278 278 278 277 276 275 274 274 273 272 272 271
238 240 241 242 242 242 241 241 241 243 246 248 249 252 256 259 260 264 268 271 274 276 278 279 279 279 281 281 279 279 279 278 277 276 277 277 276 275 274 273 272 272 271
241 241 243 244 244 244 244 243 244 246 248 250 252 254 258 261 262 264 267 269 272 275 276 277 279 281 280 280 278 279 279 279 279 278 277 277 277 277 275 273 272 272 272
243 243 244 244 244 245 246 246 247 248 249 252 253 256 260 261 263 266 268 270 273 275 276 277 279 280 280 279 278 278 278 277 277 277 277 277 277 278 276 274 272 272 272
245 244 244 245 245 246 247 247 248 248 251 254 255 257 259 261 263 266 268 270 273 275 277 277 279 280 280 279 277 276 275 276 276 276 275 275 276 277 275 275 274 273 273
246 246 245 245 245 246 247 247 248 250 252 254 256 258 260 261 263 265 267 270 272 274 276 277 278 280 280 280 278 276 275 275 276 276 275 275 276 276 275 275 275 274 275
248 245 244 246 247 247 248 249 249 251 253 254 256 260 263 262 262 264 266 268 271 273 275 277 279 280 280 280 279 278 276 275 275 275 275 276 275 276 276 275 275 275 274
248 247 246 246 247 247 248 249 250 252 254 256 258 261 263 263 263 264 266 268 271 272 274 275 278 279 280 280 280 279 279 278 276 276 277 277 277 276 276 275 276 276 276
250 247 248 246 246 248 249 250 252 254 256 258 259 261 262 263 264 266 268 269 271 272 273 275 277 279 280 280 281 280 280 279 278 278 277 277 277 276 276 276 276 277 277
251 248 246 246 247 248 249 252 252 254 257 258 260 261 263 265 266 268 270 271 273 274 276 277 278 279 280 281 281 281 280 279 279 278 279 278 277 277 277 277 278 279 278
251 247 244 246 246 247 249 251 252 255 257 257 259 262 264 266 268 271 272 273 274 276 277 278 279 280 281 281 281 281 281 280 279 279 279 279 278 278 278 279 279 279 278
250 245 243 245 246 245 247 250 252 254 255 258 261 263 266 268 269 270 272 274 274 275 277 278 279 280 281 281 281 282 282 282 281 281 281 281 281 280 280 280 280 280 279
248 244 244 245 245 246 246 248 250 253 257 261 262 264 267 268 270 272 274 275 276 277 278 279 280 281 281 282 282 282 283 283 283 283 283 283 282 281 281 281 281 280 279
251 246 245 244 246 247 247 247 249 253 258 261 263 266 268 270 272 274 275 277 278 279 280 281 281 282 282 283 283 283 284 284 284 284 284 284 283 283 282 282 282 282 282
247 245 243 244 247 246 248 251 255 258 261 264 266 268 270 271 273 275 276 277 279 280 281 282 282 283 283 283 284 285 285 286 286 286 286 286 286 286 285 284 283 283 283
251 251 249 249 251 253 255 257 261 264 266 268 268 270 272 274 275 277 278 279 280 281 282 283 283 284 284 285 286 287 287 287 287 288 288 289 289 288 288 287 286 285 284
257 254 253 255 257 258 259 261 264 266 268 270 272 273 275 276 277 278 279 280 281 282 283 284 285 285 286 287 288 288 289 289 289 290 290 291 290 290 289 289 288 287 287
257 258 259 259 259 260 261 264 266 269 271 273 274 276 276 278 279 280 281 281 283 284 285 286 287 287 288 289 289 290 290 291 292 292 293 293 292 292 292 291 290 290 289
257 257 258 260 263 265 267 270 270 272 274 275 277 278 278 279 281 282 282 284 285 286 286 287 288 288 289 290 291 292 293 294 295 295 295 296 296 295 295 294 293 292 292
259 260 262 264 266 267 269 271 273 274 276 277 279 280 281 282 283 283 285 286 286 287 288 289 290 291 292 293 294 295 296 297 298 299 300 300 300 300 300 300 299 298 297
260 263 265 267 269 270 272 274 277 277 279 280 282 283 283 284 284 285 286 287 287 288 290 291 292 293 294 296 297 298 298 300 300 302 303 302 303 304 304 303 303 303 303
265 267 270 271 273 274 276 277 279 279 280 282 284 284 285 285 286 287 288 288 289 291 292 293 294 296 297 299 300 301 302 303 304 305 305 306 306 307 308 307 307 307 308
269 271 272 274 275 276 277 278 279 281 283 284 285 286 286 288 289 290 291 292 293 293 294 296 297 298 299 301 303 304 304 305 307 307 307 308 310 310 310 311 311 312 312
271 273 274 276 277 277 278 280 281 283 284 285 286 288 290 292 294 295 295 295 295 297 298 299 299 300 301 302 303 303 305 307 309 310 311 312 313 315 316 315 316 317 318
273 274 276 277 279 280 281 281 283 284 285 286 288 290 292 294 295 296 296 296 297 299 300 301 301 302 303 304 306 306 308 310 312 313 312 315 317 319 321 320 321 323 324
273 275 277 279 280 281 282 284 284 284 285 286 288 290 292 294 295 296 297 298 299 301 302 303 302 302 303 304 307 309 310 311 313 314 315 318 321 323 325 325 326 328 329